Volver al catálogo

CZ-6A DEB

ActivoPO
NORAD 54334·DEBRIS·🇨🇳 China

Lanzado Nov 11, 2022 desde Taiyuan Satellite Launch Center

Loading…

Próximos Pases (próximas 24 horas)

TLE

ActualizadoSource: Space-Track

Época: Sep 13, 2026, 18:36 UTC

1 54334U 22151CD  26256.77569227  .00776661  00000-0  79248-2 0  9991
2 54334  98.6079  10.6632 0022089 259.6714 100.2050 15.62382508205424

Sigue CZ-6A DEB en tiempo real con AllMySat

Download on the App Store